Volver al catálogo

HORYU 2

ActivoCienciaSSO
NORAD 38340·PAYLOAD·🇯🇵 Japan

Lanzado May 17, 2012 desde Tanegashima Space Center

Loading…

Próximos Pases (próximas 24 horas)

TLE

ActualizadoSource: Space-Track

Época: Sep 14, 2026, 08:14 UTC

1 38340U 12025D   26257.34317542  .00002606  00000-0  26634-3 0  9997
2 38340  98.2304  34.0180 0006796 246.3973 113.6531 14.91515345762018

Sigue HORYU 2 en tiempo real con AllMySat

Download on the App Store